Regional Weather Roundup
Issued by NWS Sterling, VA

Home | Current Version | Previous Version | Graphics & Text | Print | Product List | Glossary On
Versions: 1 2 3 4 5 6 7 8 9 10 11 12 13 14 15 16 17 18 19 20 21 22 23 24 25 26 27 28 29 30 31 32 33 34 35 36 37 38 39 40 41 42 43 44 45 46 47 48 49 50
000
ASUS41 KLWX 151210
RWRLWX

REGIONAL WEATHER ROUNDUP
NATIONAL WEATHER SERVICE BALTIMORE MD/WASHINGTON DC
800 AM EDT MON SEP 15 2014

Note: "FAIR" indicates few or no clouds below 12,000 feet
with no significant weather and/or obstructions to visibility.
 TC=TEMPERATURE CELSIUS

 * =Non NWS site. Station does not report precipitation (e.g. rain,
    snow, etc.), thunder, or fog.

DCZ001-MDZ009-015-VAZ040>042-051-053>054-151300-
WASHINGTON METRO

CITY           SKY/WX    TMP DP  RH WIND       PRES   REMARKS
WASHINGTON NAT PTSUNNY   61  51  70 N3        30.26R
DULLES         MOSUNNY   53  50  89 CALM      30.26R
ANDREWS AFB    CLOUDY    57  53  86 N2        30.25R
QUANTICO       MOSUNNY   55  52  89 NW8       30.26R
COLLEGE PARK*  CLOUDY    54  54 100 CALM      30.25R
LEESBURG*      SUNNY     52  52 100 CALM      30.26S
MANASSAS*      SUNNY     50  50 100 CALM      30.26R
GAITHERSBURG*  SUNNY     48  48 100 CALM      30.29S

$$

MDZ006>007-011-014-151300-
BALTIMORE METRO

CITY           SKY/WX    TMP DP  RH WIND       PRES   REMARKS
BWI AIRPORT    PTSUNNY   56  50  80 CALM      30.25R
MD SCIENCE CTR   N/A     61  49  64 MISG      30.25R
MARTIN STATE   PTSUNNY   57  54  88 CALM      30.26
ANNAPOLIS      CLOUDY    62  55  77 NW5       30.25R
FORT MEADE*    CLOUDY    52  50  93 CALM      30.28R

$$

MDZ012-015-019>023-151300-
MARYLAND EASTERN SHORE

CITY           SKY/WX    TMP DP  RH WIND       PRES   REMARKS
OCEAN CITY     SUNNY     56  53  90 NW3       30.24R
SALISBURY      SUNNY     57  51  80 CALM      30.24S
BAY BRIDGE AP*   N/A     59  52  77 CALM      30.25R
CAMBRIDGE*     PTSUNNY   55  52  88 CALM      30.24S
EASTON*        PTSUNNY   55  55 100 CALM      30.28R

$$

MDZ017>025-151300-
SOUTHERN MARYLAND

CITY           SKY/WX    TMP DP  RH WIND       PRES   REMARKS
PATUXENT RIVER PTSUNNY   60  58  92 CALM      30.24R
ST INIGOES     CLOUDY    61  57  87 CALM      30.23R
LEONARDTOWN*   SUNNY     54  52  94 CALM      30.26R

$$

MDZ003>005-151300-
NORTH CENTRAL MARYLAND

CITY           SKY/WX    TMP DP  RH WIND       PRES   REMARKS
FREDERICK*     SUNNY     52  50  93 CALM      30.28R
HAGERSTOWN APT SUNNY     50  46  86 CALM      30.26R
WESTMINSTER*   SUNNY     48  46  93 CALM      30.25R

$$

MDZ501>502-151300-
WESTERN MARYLAND

CITY           SKY/WX    TMP DP  RH WIND       PRES   REMARKS
OAKLAND*       SUNNY     46  46 100 CALM      30.26R
CUMBERLAND*    CLOUDY    46  45  93 CALM      30.31S VSB<1/4

$$

VAZ025>031-151300-
SHENANDOAH VALLEY

CITY           SKY/WX    TMP DP  RH WIND       PRES   REMARKS
WINCHESTER*    SUNNY     50  48  93 CALM      30.26R
STAUNTON*      FOG       47  46  95 CALM      30.28R VSB<1/4

$$

WVZ021-048>050-054>055-151300-
EASTERN WEST VIRGINIA PANHANDLE

CITY           SKY/WX    TMP DP  RH WIND       PRES   REMARKS
MARTINSBURG    SUNNY     49  45  86 CALM      30.26S
PETERSBURG*    FOG       51  48  92 CALM      30.28R VSB 1/4

$$

VAZ036>039-050-151300-
CENTRAL FOOTHILLS

CITY           SKY/WX    TMP DP  RH WIND       PRES   REMARKS
CHARLOTTESVILL PTSUNNY   54  52  93 CALM      30.25R
ORANGE*        MOSUNNY   52  50  93 CALM      30.26S

$$

VAZ055>057-151300-
NORTH AND CENTRAL PIEDMONT

CITY           SKY/WX    TMP DP  RH WIND       PRES   REMARKS
FREDERICKSBRG* SUNNY     55  55 100 CALM      30.24S
STAFFORD*      PTSUNNY   52  52 100 CALM      30.28S

$$

NCZ024-NYZ072-PAZ021-071-VAZ022-071-151300-
OTHER REGIONAL OBSERVATIONS

CITY           SKY/WX    TMP DP  RH WIND       PRES   REMARKS
NEW YORK CITY  SUNNY     57  43  59 VRB5      30.27S
PHILADELPHIA   MOSUNNY   56  47  71 N10       30.25S
PITTSBURGH     MOSUNNY   45  42  89 CALM      30.25R
ROANOKE        PTSUNNY   58  56  93 CALM      30.27R
RICHMOND       PTSUNNY   64  56  75 CALM      30.24R
RALEIGH        CLOUDY    64  60  87 CALM      30.25R

$$

ANZ530>537-151300-
MARINE OBSERVATIONS

STATION/POSITION TIME  TEMP    WIND        PRES
                       AIR SEA DIR/SP/G
                 (UTC) (F)     (DEG/KT/KT) (MB)
THOMAS PT LIGHT  1200   63 74   70/  6/  7 1025.2R
BALT KEY BRIDGE  1200   61      10/  3/  4 1024.1R
COVE POINT       1200   62     100/  8/  9 1023.9R
LEWISETTA        1200   62 73  280/  2/  2 1023.5S
SOLOMONS ISLAND  1200      76                N/A
PINEY POINT      1200           40/  4/  5   N/A

$$




USA.gov is the U.S. government's official web portal to all federal, state and local government web resources and services.